Home > Weather > Glasgow > Past weeks

Flag for United Kingdom Past Weather in Glasgow, Scotland, United Kingdom — Yesterday and Last 2 Weeks

Now
43 °F

Quite cool.


Feels Like: 38 °F
Forecast: 46 / 60 °F
Wind: 8 mph from Northeast

Location: Glasgow Airport

Current Time: May 25, 2016 at 6:24:06 AM

Latest Report: May 25, 2016 at 5:50 AM


Visibility: N/A

Pressure: 30.27 "Hg

Humidity: 71%

Dew Point: 34 °F

Location of GlasgowLocation

Past Weather in Glasgow — Graph

°F

Glasgow Temperature Yesterday

Maximum temperature yesterday: 64 °F (at 3:20 PM)
Minimum temperature yesterday: 39 °F (at 3:50 AM)
Average temperature yesterday: 53 °F

High & Low Weather Summary for the Past Weeks

 TemperatureHumidityPressure
High72 °F (May 10, 1:20 PM)100% (May 17, 10:50 PM)30.30 "Hg (May 17, 10:50 PM)
Low34 °F (May 14, 2:20 AM)18% (May 12, 7:50 PM)29.42 "Hg (May 21, 9:20 AM)
Average53 °F73%29.92 "Hg
* Reported May 10 5:20 AM — May 25 5:20 AM, Glasgow, Weather by CustomWeather, © 2016

Note: Actual official high and low records may vary slightly from our data, if they occured in-between our weather recording intervals... More about our weather records

Advertising

Glasgow Weather History for the Previous 24 Hours

Scroll right to see more
 ConditionsComfort  
Time TempWeatherWind HumidityBarometerVisibility
5:20 AM
Wed, May 25
45 °FPassing clouds.9 mph66%30.27 "HgN/A
4:50 AM45 °FOvercast.10 mph71%30.27 "HgN/A
4:20 AM45 °FOvercast.8 mph71%30.27 "HgN/A
3:50 AM45 °FPassing clouds.8 mph71%30.27 "HgN/A
3:20 AM45 °FOvercast.12 mph71%30.27 "HgN/A
2:50 AM46 °FOvercast.10 mph66%30.27 "HgN/A
2:20 AM46 °FMostly cloudy.12 mph66%30.30 "HgN/A
1:50 AM48 °FPassing clouds.9 mph71%30.30 "HgN/A
1:20 AM46 °FPartly cloudy.8 mph76%30.30 "HgN/A
12:50 AM46 °FPassing clouds.9 mph76%30.30 "HgN/A
12:20 AM48 °FPartly cloudy.12 mph71%30.27 "HgN/A
11:50 PM
Tue, May 24
48 °FPassing clouds.12 mph71%30.27 "HgN/A
11:20 PM48 °FPassing clouds.12 mph76%30.27 "HgN/A
10:50 PM50 °FPassing clouds.10 mph71%30.27 "HgN/A
10:20 PM50 °FBroken clouds.13 mph71%30.27 "HgN/A
9:50 PM52 °FPartly sunny.13 mph62%30.27 "HgN/A
9:20 PM52 °FPassing clouds.13 mph62%30.27 "HgN/A
8:50 PM54 °FPartly sunny.13 mph67%30.27 "HgN/A
8:20 PM54 °FPassing clouds.9 mph67%30.27 "HgN/A
7:50 PM54 °FCool.13 mph67%30.27 "HgN/A
7:20 PM55 °FScattered clouds.13 mph63%30.27 "HgN/A
6:50 PM57 °FPassing clouds.13 mph63%30.27 "HgN/A
6:20 PM57 °FPassing clouds.13 mph63%30.24 "HgN/A
5:50 PM57 °FPassing clouds.13 mph63%30.24 "HgN/A
5:20 PM61 °FPassing clouds.15 mph59%30.24 "HgN/A
4:50 PM61 °FPassing clouds.13 mph55%30.24 "HgN/A
4:20 PM63 °FPassing clouds.14 mph56%30.24 "HgN/A
3:50 PM63 °FScattered clouds.14 mph56%30.24 "HgN/A
3:20 PM64 °FScattered clouds.14 mph52%30.24 "HgN/A
2:50 PM63 °FPassing clouds.12 mph52%30.24 "HgN/A
2:20 PM63 °FPassing clouds.9 mph56%30.27 "HgN/A
1:50 PM63 °FPassing clouds.10 mph56%30.27 "HgN/A
1:20 PM61 °FPassing clouds.12 mph59%30.27 "HgN/A
12:50 PM61 °FPartly sunny.13 mph59%30.27 "HgN/A
12:20 PM61 °FScattered clouds.12 mph59%30.27 "HgN/A
11:50 AM61 °FPartly sunny.13 mph59%30.27 "HgN/A
11:20 AM59 °FPartly sunny.13 mph63%30.27 "HgN/A
10:50 AM59 °FScattered clouds.13 mph63%30.27 "HgN/A
10:20 AM59 °FScattered clouds.12 mph63%30.27 "HgN/A
9:50 AM57 °FCool.10 mph67%30.27 "HgN/A
9:20 AM57 °FCool.9 mph67%30.27 "HgN/A
8:50 AM55 °FCool.10 mph72%30.27 "HgN/A
8:20 AM52 °FCool.8 mph82%30.27 "HgN/A
7:50 AM52 °FCool.6 mph82%30.27 "HgN/A
7:20 AM50 °FCool.7 mph88%30.27 "HgN/A
6:50 AM45 °FQuite cool.2 mph100%30.27 "HgN/A
6:20 AM43 °FQuite cool.No wind93%30.27 "HgN/A
Weather by CustomWeather, © 2016

See weather overviewHow to use our weather pages